www.pogodaiklimat.ru

Погода и климат >> Архив погоды >> Россия >> Чукотка >> Чаун


ПОГОДА в Чауне

  • Прогноз погоды в Чауне
  • Монитор погоды в Чауне
  • Климат города

АРХИВ ПОГОДЫ в Чауне

Время (UTC), дата Ветер
(напр.,м/с)
 
Видим.   Явления Облачность Т
(С)
Тd
(С)
f
(%)
Тe
(С)
Тes
(С)
Комфортность P
(гПа)
Po
(гПа)
Тmin
(С)
Tmax
(С)
R
(мм)
R24
(мм)
S
(см)
03 16.05 СЗ 3
{10}
50 км ясно -0.1 -1.6 90 -5 +2 1015.1 1014.5
09 16.05 СЗ 5
{7}
500 м туман ?/? -3.0 -3.0 100 -10 -10 1016.3 1015.7 +3.0
15 16.05 СЗ 1
{5}
500 м переохл. туман ?/? -5.5 -5.5 100 -8 -8 1017.1 1016.5
21 16.05 В 1
{2}
500 м переохл. туман ?/? -5.3 -5.3 100 -8 -8 1017.3 1016.7 -6.0 67
03 17.05 В 4
{6}
50 км 8/0
[Ci fib]
+0.6 -0.8 90 -5 -0 1015.6 1015.0
09 17.05 В 8
{10}
50 км 10/0
[Cs]
+0.4 -0.7 92 -7 -7 1014.9 1014.3 +0.8
15 17.05 ЮВ 9-10
{12}
50 км 9/0
[Ci sp]
-0.5 -1.7 92 -9 -9 1014.3 1013.7
21 17.05 ЮВ 9-11
{11}
50 км 9/0
[Ci sp]
+1.0 -0.4 90 -7 -6 1014.3 1013.7 -0.8 65
03 18.05 ЮВ 10-12
{12}
50 км ясно +1.5 -0.5 87 -6 -6 1014.1 1013.5
09 18.05 ЮВ 9-10
{12}
20 км 9/0
[Ci sp]
+0.6 -0.8 90 -7 -7 1015.3 1014.7 +1.6
15 18.05 СЗ 8
{11}
20 км 6/0
[Ci sp]
-1.2 -2.2 93 -9 -9 1016.4 1015.8
21 18.05 ЮВ 6
{10}
20 км 8/0
[Ci fib]
+1.0 -0.4 90 -5 -3 1017.3 1016.7 -1.6 53
03 19.05 В 5
{8}
50 км 4/0
[Ci fib]
+1.7 +0.1 89 -4 -0 1016.9 1016.3
09 19.05 В 4
{5}
50 км 9/0
[Ac trans Ci fib]
+0.6 -0.5 92 -5 -5 1016.8 1016.2 +1.7
15 19.05 ЮВ 4
{6}
50 км ясно -4.0 -5.2 91 -10 -10 1016.8 1016.2
21 19.05 В 4
{6}
50 км ясно +0.1 -1.4 90 -5 -1 1016.5 1015.9 -4.4 48
03 20.05 В 4
{6}
50 км ясно +1.6 -0.6 85 -3 +2 1015.7 1015.1
09 20.05 В 2
{5}
20 км 9/0
[Ci sp]
-1.2 -2.4 92 -5 -5 1014.8 1014.2 +1.7
12 20.05 В 1
{3}
20 км 3/0
[Ci fib]
-2.5 -3.1 96 -5 -5 1015.4 1012.4
15 20.05 В 5
{6}
50 км 3/0
[Ci fib]
-5.1 -6.1 93 -12 -12 1013.0 1012.4
21 20.05 В 6
{7}
20 км 9/0
[Ci sp]
+0.8 -0.9 88 -6 -4 1011.0 1010.4 -5.2 45
03 21.05 ЮВ 9-10
{10}
50 км 10/0
[Cs]
+1.6 -0.6 85 -6 -5 1009.4 1008.8
09 21.05 ЮВ 9-11
{11}
20 км 8/0
[Ci fib]
+0.6 -1.4 86 -7 -7 1009.7 1009.1 +1.8
15 21.05 В 8
{12}
50 км 6/0
[Ci fib]
-1.5 -3.2 88 -9 -9 1010.3 1009.7
21 21.05 В 4
{10}
50 км ясно +0.5 -1.5 86 -5 -1 1011.5 1010.9 -3.1 41
03 22.05 З 2
{5}
50 км 3/0
[Ci fib]
+0.9 -0.5 90 -3 +5 1011.9 1011.3
09 22.05 З 3
{5}
2000 м дымка ясно -3.2 -3.6 97 -9 -8 1012.9 1012.0 +3.5
15 22.05 З 2
{5}
4000 м дымка 3/0
[Ci fib]
-8.0 -8.2 98 -13 -13 1012.4 1011.8

 

Местоположение метеостанции Чаун (Чукотка, Россия): широта 68.88 долгота 170.70 высота над уровнем моря 5 м.

В архиве по умолчанию представлена погода в Чауне за последнюю неделю. Архивные данные за месяц целиком и за предыдущие месяцы, начиная с января 2011 года, Вы можете получить, выбрав интересующий диапазон дат из раскрывающегося списка и нажав кнопку "Ввод!".


*Определитесь, кто Вы:
робот инопланетянин человек

Внимание! Время в таблицах - всемирное. Для получения местного времени необходимо прибавить поправку, которая в Чауне равна 12 ч.

Смотрите также архив погоды в соседних городах и на ближайших метеорологических станциях:

Погода в 21 км (Чукотка, Россия) (84 км)
Погода в Комсомольской (Чукотка, Россия) (89 км)
Погода в Певеке (Чукотка, Россия) (93 км)
Погода в Майской (Чукотка, Россия) (117 км)
Погода в Валькаркае (Чукотка, Россия) (134 км)
Погода в Паляваам-Глубокой (Чукотка, Россия) (137 км)
Погода на Айон Острове (Чукотка, Россия) (160 км)
Погода в Раучуе (Чукотка, Россия) (180 км)
Погода в Билибино (Чукотка, Россия) (198 км)
Погода в Илирнее (Чукотка, Россия) (215 км)

Пояснения к столбцам:

Ветер - указаны скорость ветра в м/с - средняя за 10 мин, порывы в срок и между сроками (в фигурных скобках) и направление, откуда дует ветер: С - северный, СВ - северо-восточный, В - восточный, ЮВ - юго-восточный, Ю - южный, ЮЗ - юго-западный, З - западный, СЗ - северо-западный.
Видимость - горизонтальная дальность видимости в метрах или километрах. При видимости от 1 до 10 км при отсутствии осадков обычно наблюдается дымка, при ухудшении видимости до 1 км и менее - туман. В сухую погоду видимость может ухудшаться дымом, пылью или мглою.
Явления - указаны атмосферные явления, наблюдавшиеся в срок или в последний час перед сроком; фигурными скобками обозначены явления, наблюдавшиеся между сроками (за 1-3 часа до срока); квадратными скобками обозначены град или гололедные отложения с указанием их диаметра в мм.
Облачность - указаны через наклонную черту общая и нижняя облачность в баллах и высота нижней границы облаков в метрах; квадратными скобками обозначены формы облаков: Ci - перистые, Cs - перисто-слоистые, Cc - перисто-кучевые, Ac - высококучевые, As - высокослоистые, Sc - слоисто-кучевые, Ns - слоисто-дождевые, Cu - кучевые, Cb - кучево-дождевые. Подробнее классификацию облаков см. в Атласе облаков (PDF).
T - Температура воздуха - температура, измеренная на высоте 2 м над землей.
Td - Температура точки росы - температура, при понижении до которой содержащийся в воздухе водяной пар достигнет насыщения.
f - Относительная влажность воздуха - влажноcть воздуха, измеренная на высоте 2 м над землей.
Te - Эффективная температура - температура, которую ощущает одетый по сезону человек в тени. Характеристика душности погоды. При расчете учитывается влияние влажности воздуха и скорости ветра на теплоощущения человека.
Tes - Эффективная температура на солнце - температура, которую ощущает человек, с поправкой на солнечный нагрев. Характеристика знойности погоды. Зависит от высоты солнца над горизонтом, облачности и скорости ветра. Ночью, в пасмурную погоду, а также при ветре 12 м/с и более поправка равна нулю.
P - Атмосферное давление - приведенное к уровню моря атмосферное давление.
Po - Атмосферное давление - измеренное на уровне метеостанции атмосферное давление.
Tmin - Минимальная температура - минимум температуры воздуха на высоте 2 м над землей.
Tmax - Максимальная температура - максимум температуры воздуха на высоте 2 м над землей.
R - Количество осадков - Количество выпавших осадков за период времени, мм. При наведении курсора мыши на число - период времени, за который выпало указанное количество осадков.
R24 - Количество осадков - Количество выпавших осадков за 24 часа, мм.
S - Снежный покров - Высота снежного покрова, см. При наведении курсора мыши на число - состояние снежного покрова и степень покрытия местности в баллах.